Flag for Benin Weather past 2 weeks in Porto Novo, Benin

Now
81 °F

Passing clouds.


Feels Like: 88 °F
Forecast: 75 / 90 °F
Wind: 9 mph from Southwest

Location: Cotonou Airport

Current Time: Jan 26, 2015 at 7:50:48 AM

Latest Report: Jan 26, 2015 at 7:00 AM


Visibility: 5 mi

Pressure: 29.83 "Hg

Humidity: 94%

Dew point: 79 °F

Location of Porto NovoLocation

Historic Weather in Porto Novo — Graph

°F

Porto Novo temperature yesterday

Maximum temperature yesterday: 88 °F (at 2:00 PM)
Minimum temperature yesterday: 81 °F (at 12:00 AM)
Average temperature yesterday: 83 °F

Past Weeks' High & Low Weather Summary

 TemperatureHumidityPressure
High90 °F (Jan 15, 2:00 PM)100% (Jan 14, 2:00 AM)30.01 "Hg (Jan 14, 2:00 AM)
Low66 °F (Jan 13, 5:00 AM)22% (Jan 12, 2:00 PM)29.74 "Hg (Jan 20, 4:00 PM)
Average80 °F82%29.85 "Hg
* Reported Jan 11 6:00 AM — Jan 26 6:00 AM, Porto Novo, Weather by CustomWeather, © 2014

Note: Actual official high and low records may vary slightly from our data, if they occured in-between our weather recording intervals... More about our weather records

Advertising

Porto Novo weather history for previous 24 hours

 ConditionsComfort  
Time TempWeatherWind HumidityBarometerVisibility
6:00 AM
Jan 26
81 °FPassing clouds.9 mph94%29.80 "Hg5 mi
5:00 AM81 °FPassing clouds.8 mph94%29.80 "Hg5 mi
4:00 AM81 °FPassing clouds.8 mph89%29.80 "Hg5 mi
3:00 AM81 °FPassing clouds.9 mph94%29.80 "Hg5 mi
2:00 AM81 °FPassing clouds.8 mph94%29.83 "HgN/A
1:00 AM81 °FPassing clouds.9 mph94%29.83 "HgN/A
12:00 AM81 °FPassing clouds.12 mph89%29.83 "HgN/A
11:00 PM
Jan 25
81 °FPassing clouds.9 mph94%29.83 "HgN/A
10:00 PM81 °FPassing clouds.9 mph94%29.83 "HgN/A
9:00 PM82 °FPassing clouds.10 mph84%29.83 "HgN/A
8:00 PM82 °FPassing clouds.12 mph89%29.80 "HgN/A
7:00 PM82 °FPassing clouds.10 mph84%29.77 "HgN/A
6:00 PM84 °FPassing clouds.10 mph84%29.74 "HgN/A
5:00 PM86 °FPassing clouds.13 mph79%29.74 "HgN/A
4:00 PM86 °FScattered clouds.15 mph79%29.74 "HgN/A
3:00 PM88 °FScattered clouds.15 mph75%29.77 "HgN/A
2:00 PM88 °FScattered clouds.13 mph75%29.77 "HgN/A
12:00 PM86 °FScattered clouds.12 mph79%29.83 "Hg5 mi
11:00 AM86 °FScattered clouds.14 mph79%29.83 "Hg5 mi
10:00 AM84 °FScattered clouds.13 mph84%29.83 "Hg4 mi
9:00 AM82 °FScattered clouds.14 mph89%29.83 "Hg4 mi
8:00 AM81 °FScattered clouds.9 mph94%29.80 "Hg4 mi
7:00 AM81 °FPassing clouds.9 mph94%29.80 "Hg4 mi
Weather by CustomWeather, © 2014

See weather overviewHow to use our weather pages